LPE673 SPJC-MROC

Flight info

Callsign LPE673
Flight time 3h 15m
Altitude 38000
Route ISREN UM542 ATENO UL203 LIXAS UZ593 ERABA PARRI3E
Aircraft B772/H-SDE2E3FGHIJ5LORVWXY/LB1D1

Departure

Time 2026-05-04 01:26
Airport Jorge Chávez International Airport (SPJC)

Arrival

Time 2026-05-04 04:41
Airport Juan Santamaría International Airport (MROC)
Time Latitude Longitude Altitude Speed Heading
2026-05-04 00:58 -12.02453 -77.10877 123 ft 0 kts 64°
2026-05-04 01:04 -12.02454 -77.10879 123 ft 2 kts 64°
2026-05-04 01:05 -12.02460 -77.10892 123 ft 2 kts 64°
2026-05-04 01:05 -12.02464 -77.10902 123 ft 1 kts 64°
2026-05-04 01:05 -12.02471 -77.10915 123 ft 2 kts 55°
2026-05-04 01:05 -12.02481 -77.10926 123 ft 2 kts 44°
2026-05-04 01:06 -12.02491 -77.10936 123 ft 2 kts 36°
2026-05-04 01:06 -12.02504 -77.10944 123 ft 2 kts 26°
2026-05-04 01:06 -12.02517 -77.10950 123 ft 2 kts 17°
2026-05-04 01:06 -12.02532 -77.10953 123 ft 2 kts
2026-05-04 01:07 -12.02546 -77.10954 123 ft 2 kts 358°
2026-05-04 01:07 -12.02561 -77.10953 123 ft 2 kts 348°
2026-05-04 01:07 -12.02575 -77.10949 123 ft 2 kts 339°
2026-05-04 01:07 -12.02584 -77.10945 123 ft 0 kts 333°
2026-05-04 01:08 -12.02586 -77.10944 123 ft 0 kts 333°
2026-05-04 01:14 -12.02580 -77.10947 123 ft 3 kts 336°
2026-05-04 01:14 -12.02538 -77.10968 123 ft 8 kts 322°
2026-05-04 01:15 -12.02501 -77.11018 123 ft 9 kts 305°
2026-05-04 01:15 -12.02461 -77.11071 123 ft 9 kts 314°
2026-05-04 01:15 -12.02407 -77.11111 123 ft 9 kts 330°
2026-05-04 01:15 -12.02343 -77.11144 123 ft 10 kts 333°
2026-05-04 01:16 -12.02278 -77.11178 123 ft 10 kts 335°
2026-05-04 01:16 -12.02209 -77.11210 123 ft 11 kts 335°
2026-05-04 01:16 -12.02139 -77.11243 123 ft 11 kts 333°
2026-05-04 01:16 -12.02068 -77.11279 123 ft 11 kts 334°
2026-05-04 01:17 -12.01996 -77.11316 123 ft 11 kts 334°
2026-05-04 01:17 -12.01922 -77.11352 123 ft 11 kts 335°
2026-05-04 01:17 -12.01847 -77.11389 123 ft 12 kts 334°
2026-05-04 01:17 -12.01771 -77.11427 123 ft 12 kts 335°
2026-05-04 01:18 -12.01725 -77.11449 123 ft 0 kts 334°
2026-05-04 01:18 -12.01717 -77.11453 123 ft 2 kts 334°
2026-05-04 01:18 -12.01686 -77.11468 123 ft 7 kts 334°
2026-05-04 01:19 -12.01623 -77.11499 123 ft 12 kts 334°
2026-05-04 01:19 -12.01532 -77.11545 123 ft 16 kts 334°
2026-05-04 01:19 -12.01421 -77.11599 123 ft 18 kts 334°
2026-05-04 01:19 -12.01309 -77.11653 123 ft 17 kts 334°
2026-05-04 01:20 -12.01200 -77.11707 123 ft 17 kts 334°
2026-05-04 01:20 -12.01094 -77.11760 123 ft 16 kts 334°
2026-05-04 01:20 -12.00992 -77.11810 123 ft 16 kts 335°
2026-05-04 01:20 -12.00891 -77.11859 123 ft 15 kts 333°
2026-05-04 01:21 -12.00821 -77.11895 123 ft 10 kts 334°
2026-05-04 01:21 -12.00756 -77.11927 123 ft 10 kts 334°
2026-05-04 01:21 -12.00694 -77.11969 123 ft 10 kts 307°
2026-05-04 01:21 -12.00684 -77.12029 123 ft 1 kts 253°
2026-05-04 01:22 -12.00686 -77.12034 123 ft 0 kts 250°
2026-05-04 01:24 -12.00689 -77.12042 123 ft 2 kts 250°
2026-05-04 01:24 -12.00700 -77.12073 123 ft 5 kts 246°
2026-05-04 01:24 -12.00736 -77.12091 123 ft 7 kts 200°
2026-05-04 01:25 -12.00792 -77.12108 123 ft 8 kts 184°
2026-05-04 01:25 -12.00827 -77.12100 123 ft 0 kts 159°
2026-05-04 01:25 -12.00978 -77.12028 123 ft 62 kts 153°
2026-05-04 01:25 -12.01608 -77.11718 123 ft 136 kts 155°
2026-05-04 01:26 -12.02600 -77.11243 633 ft 163 kts 156°
2026-05-04 01:26 -12.03639 -77.10730 1250 ft 179 kts 155°
2026-05-04 01:26 -12.04723 -77.10180 2137 ft 171 kts 155°
2026-05-04 01:26 -12.05837 -77.09630 2504 ft 188 kts 154°
2026-05-04 01:27 -12.07060 -77.09028 2989 ft 203 kts 154°
2026-05-04 01:27 -12.08366 -77.08382 3467 ft 219 kts 154°
2026-05-04 01:27 -12.09817 -77.07665 3970 ft 236 kts 154°
2026-05-04 01:27 -12.11331 -77.06918 4458 ft 253 kts 154°
2026-05-04 01:28 -12.12963 -77.06119 5044 ft 267 kts 157°
2026-05-04 01:28 -12.14789 -77.05733 5732 ft 274 kts 181°
2026-05-04 01:28 -12.16665 -77.06203 5966 ft 282 kts 208°
2026-05-04 01:28 -12.18178 -77.07581 5979 ft 279 kts 238°
2026-05-04 01:29 -12.18814 -77.09429 5982 ft 276 kts 266°
2026-05-04 01:29 -12.18603 -77.11454 5996 ft 274 kts 282°
2026-05-04 01:29 -12.18164 -77.13454 5993 ft 275 kts 283°
2026-05-04 01:29 -12.17732 -77.15366 5992 ft 274 kts 283°
2026-05-04 01:30 -12.17304 -77.17259 5992 ft 274 kts 283°
2026-05-04 01:30 -12.16849 -77.19266 5992 ft 274 kts 283°
2026-05-04 01:30 -12.16402 -77.21239 5992 ft 274 kts 283°
2026-05-04 01:30 -12.15957 -77.23203 5992 ft 274 kts 283°
2026-05-04 01:31 -12.15509 -77.25125 5989 ft 273 kts 288°
2026-05-04 01:31 -12.14530 -77.26872 5984 ft 275 kts 315°
2026-05-04 01:31 -12.13024 -77.28159 6635 ft 283 kts 324°
2026-05-04 01:31 -12.11445 -77.29302 7681 ft 275 kts 325°
2026-05-04 01:32 -12.09859 -77.30416 8405 ft 279 kts 326°
2026-05-04 01:32 -12.08201 -77.31575 9132 ft 282 kts 326°
2026-05-04 01:32 -12.06577 -77.32710 9796 ft 286 kts 326°
2026-05-04 01:32 -12.04851 -77.33917 10346 ft 295 kts 326°
2026-05-04 01:33 -12.03105 -77.35138 10648 ft 313 kts 326°
2026-05-04 01:33 -12.01288 -77.36408 10969 ft 329 kts 326°
2026-05-04 01:33 -11.99217 -77.37856 11336 ft 347 kts 326°
2026-05-04 01:33 -11.97165 -77.39289 11700 ft 362 kts 326°
2026-05-04 01:34 -11.95038 -77.40775 12114 ft 376 kts 326°
2026-05-04 01:34 -11.92669 -77.42430 12835 ft 384 kts 327°
2026-05-04 01:34 -11.90271 -77.44106 13662 ft 388 kts 327°
2026-05-04 01:34 -11.88039 -77.45664 14436 ft 393 kts 327°
2026-05-04 01:35 -11.85770 -77.47249 15237 ft 397 kts 327°
2026-05-04 01:35 -11.83335 -77.48949 16085 ft 402 kts 327°
2026-05-04 01:35 -11.80996 -77.50581 16869 ft 407 kts 327°
2026-05-04 01:35 -11.78641 -77.52224 17636 ft 411 kts 327°
2026-05-04 01:36 -11.76244 -77.53843 18386 ft 415 kts 330°
2026-05-04 01:36 -11.73525 -77.55500 19218 ft 419 kts 331°
2026-05-04 01:36 -11.70887 -77.57098 20030 ft 423 kts 330°
2026-05-04 01:36 -11.68258 -77.58696 20807 ft 427 kts 330°
2026-05-04 01:37 -11.65654 -77.60284 21554 ft 431 kts 330°
2026-05-04 01:37 -11.63058 -77.61869 22277 ft 435 kts 330°
2026-05-04 01:37 -11.60464 -77.63455 22979 ft 439 kts 330°
2026-05-04 01:37 -11.57835 -77.65063 23669 ft 443 kts 330°
2026-05-04 01:38 -11.55164 -77.66699 24349 ft 447 kts 330°
2026-05-04 01:38 -11.52491 -77.68336 25002 ft 451 kts 330°
2026-05-04 01:38 -11.49687 -77.70052 25678 ft 454 kts 330°
2026-05-04 01:38 -11.46960 -77.71722 26309 ft 458 kts 330°
2026-05-04 01:39 -11.44136 -77.73451 26932 ft 461 kts 330°
2026-05-04 01:39 -11.41306 -77.75184 27538 ft 464 kts 330°
2026-05-04 01:39 -11.38440 -77.76938 28117 ft 468 kts 330°
2026-05-04 01:39 -11.35655 -77.78642 28673 ft 471 kts 330°
2026-05-04 01:40 -11.32799 -77.80389 29202 ft 474 kts 330°
2026-05-04 01:40 -11.29966 -77.82123 29802 ft 475 kts 330°
2026-05-04 01:40 -11.27100 -77.83876 30563 ft 473 kts 330°
2026-05-04 01:40 -11.24273 -77.85605 31351 ft 469 kts 330°
2026-05-04 01:41 -11.21508 -77.87296 32070 ft 467 kts 330°
2026-05-04 01:41 -11.18734 -77.88991 32733 ft 465 kts 330°
2026-05-04 01:41 -11.15954 -77.90690 33384 ft 464 kts 330°
2026-05-04 01:41 -11.13207 -77.92368 34041 ft 462 kts 330°
2026-05-04 01:42 -11.10463 -77.94044 34671 ft 460 kts 330°
2026-05-04 01:42 -11.07710 -77.95725 35228 ft 459 kts 330°
2026-05-04 01:42 -11.04968 -77.97385 35741 ft 459 kts 333°
2026-05-04 01:42 -11.02169 -77.98872 36237 ft 458 kts 334°
2026-05-04 01:43 -10.99352 -78.00326 36708 ft 458 kts 334°
2026-05-04 01:43 -10.96509 -78.01797 37144 ft 458 kts 334°
2026-05-04 01:43 -10.93659 -78.03277 37553 ft 459 kts 334°
2026-05-04 01:43 -10.90801 -78.04766 37950 ft 460 kts 334°
2026-05-04 01:44 -10.87955 -78.06251 38105 ft 464 kts 333°
2026-05-04 01:44 -10.82225 -78.09246 38115 ft 461 kts 333°
2026-05-04 01:45 -10.76579 -78.12201 38116 ft 459 kts 333°
2026-05-04 01:45 -10.68072 -78.16655 38115 ft 460 kts 333°
2026-05-04 01:46 -10.62424 -78.19611 38116 ft 460 kts 333°
2026-05-04 01:46 -10.56754 -78.22579 38116 ft 461 kts 333°
2026-05-04 01:47 -10.51059 -78.25559 38115 ft 460 kts 333°
2026-05-04 01:47 -10.45398 -78.28519 38115 ft 460 kts 333°
2026-05-04 01:48 -10.39720 -78.31488 38115 ft 461 kts 333°
2026-05-04 01:48 -10.34057 -78.34448 38115 ft 461 kts 333°
2026-05-04 01:49 -10.28375 -78.37416 38115 ft 461 kts 333°
2026-05-04 01:49 -10.22705 -78.40377 38115 ft 461 kts 333°
2026-05-04 01:50 -10.17035 -78.43336 38121 ft 461 kts 333°
2026-05-04 01:50 -10.11321 -78.46317 38128 ft 460 kts 333°
2026-05-04 01:51 -10.05676 -78.49262 38134 ft 460 kts 333°
2026-05-04 01:51 -9.99984 -78.52229 38134 ft 460 kts 333°
2026-05-04 01:52 -9.94305 -78.55189 38135 ft 461 kts 333°
2026-05-04 01:52 -9.88625 -78.58147 38136 ft 461 kts 333°
2026-05-04 01:53 -9.82947 -78.61104 38137 ft 462 kts 333°
2026-05-04 01:53 -9.77247 -78.64071 38137 ft 462 kts 333°
2026-05-04 01:54 -9.71542 -78.67039 38139 ft 461 kts 334°
2026-05-04 01:54 -9.65863 -78.69957 38146 ft 461 kts 334°
2026-05-04 01:55 -9.60117 -78.72881 38154 ft 462 kts 334°
2026-05-04 01:55 -9.54400 -78.75792 38156 ft 463 kts 334°
2026-05-04 01:56 -9.48672 -78.78707 38156 ft 462 kts 334°
2026-05-04 01:56 -9.42948 -78.81621 38156 ft 462 kts 334°
2026-05-04 01:57 -9.37204 -78.84544 38156 ft 463 kts 334°
2026-05-04 01:57 -9.31476 -78.87457 38155 ft 463 kts 334°
2026-05-04 01:58 -9.25774 -78.90357 38156 ft 464 kts 334°
2026-05-04 01:58 -9.20017 -78.93284 38156 ft 464 kts 334°
2026-05-04 01:59 -9.14269 -78.96205 38156 ft 464 kts 334°
2026-05-04 01:59 -9.08530 -78.99120 38146 ft 464 kts 334°
2026-05-04 02:00 -9.02765 -79.02048 38131 ft 464 kts 334°
2026-05-04 02:00 -8.97038 -79.04956 38117 ft 464 kts 334°
2026-05-04 02:01 -8.91286 -79.07875 38107 ft 464 kts 334°
2026-05-04 02:01 -8.85516 -79.10802 38101 ft 465 kts 334°
2026-05-04 02:02 -8.79777 -79.13713 38093 ft 465 kts 334°
2026-05-04 02:02 -8.73996 -79.16644 38085 ft 465 kts 334°
2026-05-04 02:03 -8.68249 -79.19556 38078 ft 466 kts 334°
2026-05-04 02:03 -8.62460 -79.22488 38074 ft 466 kts 334°
2026-05-04 02:04 -8.56681 -79.25415 38074 ft 466 kts 334°
2026-05-04 02:04 -8.50917 -79.28333 38074 ft 467 kts 334°
2026-05-04 02:05 -8.45136 -79.31258 38074 ft 467 kts 334°
2026-05-04 02:05 -8.39322 -79.34200 38074 ft 468 kts 334°
2026-05-04 02:06 -8.33552 -79.37118 38074 ft 468 kts 334°
2026-05-04 02:06 -8.27729 -79.40062 38074 ft 468 kts 334°
2026-05-04 02:07 -8.21914 -79.43001 38074 ft 469 kts 334°
2026-05-04 02:07 -8.16087 -79.45945 38074 ft 469 kts 334°
2026-05-04 02:08 -8.10262 -79.48887 38074 ft 470 kts 334°
2026-05-04 02:08 -8.04450 -79.51821 38074 ft 470 kts 334°
2026-05-04 02:09 -7.98617 -79.54765 38074 ft 470 kts 334°
2026-05-04 02:09 -7.92783 -79.57709 38075 ft 471 kts 334°
2026-05-04 02:10 -7.86966 -79.60643 38075 ft 471 kts 334°
2026-05-04 02:10 -7.81118 -79.63592 38078 ft 471 kts 334°
2026-05-04 02:11 -7.75298 -79.66526 38090 ft 471 kts 334°
2026-05-04 02:11 -7.69461 -79.69467 38105 ft 471 kts 334°
2026-05-04 02:12 -7.63603 -79.72418 38114 ft 471 kts 334°
2026-05-04 02:12 -7.57787 -79.75348 38114 ft 471 kts 334°
2026-05-04 02:13 -7.51942 -79.78291 38114 ft 471 kts 334°
2026-05-04 02:13 -7.46087 -79.81237 38115 ft 471 kts 334°
2026-05-04 02:14 -7.40275 -79.84161 38115 ft 471 kts 334°
2026-05-04 02:14 -7.34446 -79.87094 38114 ft 470 kts 334°
2026-05-04 02:15 -7.28608 -79.90029 38094 ft 471 kts 334°
2026-05-04 02:15 -7.22779 -79.92960 38071 ft 470 kts 334°
2026-05-04 02:16 -7.16932 -79.95898 38053 ft 470 kts 334°
2026-05-04 02:16 -7.11105 -79.98826 38053 ft 470 kts 334°
2026-05-04 02:17 -7.05266 -80.01759 38053 ft 471 kts 334°
2026-05-04 02:17 -6.99392 -80.04709 38053 ft 473 kts 334°
2026-05-04 02:18 -6.93543 -80.07645 38053 ft 472 kts 334°
2026-05-04 02:18 -6.87702 -80.10576 38053 ft 473 kts 334°
2026-05-04 02:19 -6.81833 -80.13517 38053 ft 472 kts 334°
2026-05-04 02:19 -6.75981 -80.16444 38053 ft 472 kts 334°
2026-05-04 02:20 -6.70087 -80.19393 38053 ft 472 kts 334°
2026-05-04 02:20 -6.64248 -80.22314 38053 ft 472 kts 334°
2026-05-04 02:21 -6.58388 -80.25244 38053 ft 472 kts 334°
2026-05-04 02:21 -6.52531 -80.28173 38053 ft 472 kts 334°
2026-05-04 02:22 -6.46671 -80.31101 38053 ft 472 kts 334°
2026-05-04 02:22 -6.40787 -80.34042 38053 ft 472 kts 334°
2026-05-04 02:23 -6.34958 -80.36953 38053 ft 472 kts 334°
2026-05-04 02:23 -6.29091 -80.39883 38074 ft 472 kts 334°
2026-05-04 02:24 -6.23212 -80.42819 38074 ft 472 kts 334°
2026-05-04 02:24 -6.17345 -80.45747 38074 ft 472 kts 334°
2026-05-04 02:25 -6.11482 -80.48673 38075 ft 472 kts 334°
2026-05-04 02:25 -6.05635 -80.51591 38075 ft 472 kts 334°
2026-05-04 02:26 -5.99765 -80.54518 38075 ft 472 kts 334°
2026-05-04 02:26 -5.93894 -80.57446 38075 ft 473 kts 334°
2026-05-04 02:27 -5.88035 -80.60368 38075 ft 473 kts 334°
2026-05-04 02:27 -5.82163 -80.63294 38075 ft 473 kts 334°
2026-05-04 02:28 -5.76295 -80.66219 38073 ft 473 kts 334°
2026-05-04 02:28 -5.70424 -80.69144 38073 ft 473 kts 334°
2026-05-04 02:29 -5.64556 -80.72066 38073 ft 473 kts 334°
2026-05-04 02:29 -5.58710 -80.74977 38073 ft 473 kts 334°
2026-05-04 02:30 -5.52809 -80.77915 38074 ft 474 kts 334°
2026-05-04 02:30 -5.46928 -80.80843 38073 ft 473 kts 334°
2026-05-04 02:31 -5.41061 -80.83762 38073 ft 473 kts 334°
2026-05-04 02:31 -5.35197 -80.86680 38073 ft 473 kts 334°
2026-05-04 02:32 -5.29315 -80.89606 38073 ft 473 kts 334°
2026-05-04 02:32 -5.23416 -80.92539 38071 ft 474 kts 334°
2026-05-04 02:33 -5.17555 -80.95454 38068 ft 474 kts 334°
2026-05-04 02:33 -5.11667 -80.98387 38066 ft 474 kts 334°
2026-05-04 02:34 -5.05811 -81.01323 38063 ft 473 kts 334°
2026-05-04 02:34 -4.99928 -81.04271 38061 ft 473 kts 334°
2026-05-04 02:35 -4.94050 -81.07216 38058 ft 474 kts 334°
2026-05-04 02:35 -4.88165 -81.10162 38048 ft 474 kts 334°
2026-05-04 02:36 -4.82298 -81.13100 38038 ft 474 kts 334°
2026-05-04 02:36 -4.76396 -81.16054 38033 ft 474 kts 334°
2026-05-04 02:37 -4.70538 -81.18986 38033 ft 474 kts 334°
2026-05-04 02:37 -4.64680 -81.21916 38033 ft 475 kts 335°
2026-05-04 02:38 -4.58760 -81.24833 38028 ft 473 kts 339°
2026-05-04 02:38 -4.52545 -81.26793 38033 ft 472 kts 346°
2026-05-04 02:39 -4.46246 -81.28558 38033 ft 472 kts 346°
2026-05-04 02:39 -4.39913 -81.30332 38033 ft 472 kts 346°
2026-05-04 02:40 -4.33624 -81.32095 38033 ft 472 kts 346°
2026-05-04 02:40 -4.27321 -81.33863 38034 ft 472 kts 346°
2026-05-04 02:41 -4.21058 -81.35620 38034 ft 472 kts 346°
2026-05-04 02:41 -4.14731 -81.37394 38034 ft 471 kts 346°
2026-05-04 02:42 -4.08450 -81.39156 38034 ft 472 kts 346°
2026-05-04 02:42 -4.02151 -81.40922 38034 ft 472 kts 346°
2026-05-04 02:43 -3.95874 -81.42681 38034 ft 471 kts 346°
2026-05-04 02:43 -3.89568 -81.44449 38034 ft 471 kts 346°
2026-05-04 02:44 -3.83325 -81.46198 38034 ft 471 kts 346°
2026-05-04 02:44 -3.77022 -81.47965 38035 ft 471 kts 346°
2026-05-04 02:45 -3.70757 -81.49720 38035 ft 471 kts 346°
2026-05-04 02:45 -3.64460 -81.51484 38037 ft 471 kts 346°
2026-05-04 02:46 -3.58178 -81.53243 38045 ft 471 kts 346°
2026-05-04 02:46 -3.51892 -81.55004 38053 ft 470 kts 346°
2026-05-04 02:47 -3.45616 -81.56761 38055 ft 470 kts 346°
2026-05-04 02:47 -3.39362 -81.58511 38054 ft 470 kts 347°
2026-05-04 02:48 -3.33014 -81.59893 38055 ft 469 kts 350°
2026-05-04 02:48 -3.26617 -81.61216 38055 ft 469 kts 350°
2026-05-04 02:49 -3.20260 -81.62547 38055 ft 468 kts 349°
2026-05-04 02:49 -3.13915 -81.63884 38055 ft 468 kts 349°
2026-05-04 02:50 -3.07599 -81.65219 38054 ft 468 kts 350°
2026-05-04 02:50 -3.01248 -81.66565 38050 ft 468 kts 349°
2026-05-04 02:51 -2.94906 -81.67909 38042 ft 467 kts 349°
2026-05-04 02:51 -2.88556 -81.69256 38035 ft 467 kts 349°
2026-05-04 02:52 -2.82244 -81.70595 38032 ft 467 kts 349°
2026-05-04 02:52 -2.75893 -81.71942 38032 ft 467 kts 349°
2026-05-04 02:53 -2.69605 -81.73277 38031 ft 466 kts 349°
2026-05-04 02:53 -2.63264 -81.74621 38032 ft 466 kts 349°
2026-05-04 02:54 -2.56970 -81.75956 38031 ft 466 kts 349°
2026-05-04 02:54 -2.50619 -81.77303 38031 ft 466 kts 349°
2026-05-04 02:55 -2.41179 -81.79305 38031 ft 465 kts 349°
2026-05-04 02:56 -2.34865 -81.80643 38031 ft 465 kts 349°
2026-05-04 02:56 -2.28537 -81.81985 38031 ft 465 kts 349°
2026-05-04 02:57 -2.22229 -81.83322 38031 ft 465 kts 349°
2026-05-04 02:57 -2.15950 -81.84653 38031 ft 465 kts 349°
2026-05-04 02:58 -2.09648 -81.85989 38031 ft 465 kts 349°
2026-05-04 02:58 -2.03376 -81.87477 38034 ft 465 kts 345°
2026-05-04 02:59 -1.97200 -81.89377 38031 ft 466 kts 344°
2026-05-04 02:59 -1.91027 -81.91283 38031 ft 466 kts 344°
2026-05-04 03:00 -1.84779 -81.93210 38033 ft 466 kts 344°
2026-05-04 03:00 -1.78554 -81.95128 38033 ft 466 kts 344°
2026-05-04 03:01 -1.72358 -81.97036 38033 ft 466 kts 344°
2026-05-04 03:01 -1.66174 -81.98940 38033 ft 466 kts 344°
2026-05-04 03:02 -1.60005 -82.00839 38032 ft 466 kts 345°
2026-05-04 03:02 -1.53805 -82.02747 38033 ft 467 kts 345°
2026-05-04 03:03 -1.47600 -82.04656 38032 ft 467 kts 345°
2026-05-04 03:03 -1.41417 -82.06559 38032 ft 467 kts 345°
2026-05-04 03:04 -1.35231 -82.08463 38032 ft 468 kts 345°
2026-05-04 03:04 -1.29034 -82.10369 38033 ft 468 kts 345°
2026-05-04 03:05 -1.22807 -82.12286 38040 ft 468 kts 345°
2026-05-04 03:05 -1.16603 -82.14194 38056 ft 469 kts 345°
2026-05-04 03:06 -1.10404 -82.16101 38072 ft 469 kts 345°
2026-05-04 03:06 -1.04180 -82.18016 38074 ft 469 kts 345°
2026-05-04 03:07 -0.97953 -82.19932 38074 ft 469 kts 345°
2026-05-04 03:07 -0.91762 -82.21836 38074 ft 470 kts 345°
2026-05-04 03:08 -0.85495 -82.23764 38075 ft 470 kts 345°
2026-05-04 03:08 -0.79275 -82.25678 38075 ft 470 kts 345°
2026-05-04 03:09 -0.73057 -82.27591 38075 ft 470 kts 345°
2026-05-04 03:09 -0.66673 -82.29555 38076 ft 470 kts 345°
2026-05-04 03:10 -0.60219 -82.31541 38076 ft 470 kts 345°
2026-05-04 03:10 -0.53965 -82.33465 38076 ft 470 kts 345°
2026-05-04 03:11 -0.47701 -82.35391 38075 ft 470 kts 345°
2026-05-04 03:11 -0.41504 -82.37298 38076 ft 471 kts 345°
2026-05-04 03:12 -0.35252 -82.39221 38076 ft 471 kts 345°
2026-05-04 03:12 -0.28992 -82.41146 38076 ft 471 kts 345°
2026-05-04 03:13 -0.22789 -82.43055 38076 ft 471 kts 345°
2026-05-04 03:13 -0.16554 -82.44973 38076 ft 471 kts 345°
2026-05-04 03:14 -0.10299 -82.46897 38067 ft 471 kts 345°
2026-05-04 03:14 -0.04027 -82.48827 38051 ft 471 kts 345°
2026-05-04 03:15 0.02190 -82.50740 38036 ft 471 kts 346°
2026-05-04 03:15 0.08428 -82.52660 38035 ft 471 kts 346°
2026-05-04 03:16 0.14668 -82.54580 38037 ft 471 kts 346°
2026-05-04 03:16 0.20916 -82.56503 38036 ft 471 kts 346°
2026-05-04 03:17 0.27147 -82.58419 38037 ft 472 kts 346°
2026-05-04 03:17 0.33387 -82.60339 38036 ft 472 kts 346°
2026-05-04 03:18 0.39637 -82.62263 38037 ft 472 kts 346°
2026-05-04 03:18 0.45926 -82.64198 38036 ft 472 kts 346°
2026-05-04 03:19 0.52159 -82.66116 38030 ft 472 kts 346°
2026-05-04 03:19 0.58408 -82.68039 38030 ft 472 kts 345°
2026-05-04 03:20 0.64675 -82.69968 38030 ft 472 kts 345°
2026-05-04 03:20 0.70896 -82.71883 38030 ft 472 kts 345°
2026-05-04 03:21 0.77178 -82.73816 38030 ft 472 kts 345°
2026-05-04 03:21 0.83421 -82.75737 38030 ft 473 kts 345°
2026-05-04 03:22 0.89729 -82.77679 38031 ft 473 kts 345°
2026-05-04 03:22 0.96021 -82.79615 38031 ft 473 kts 345°
2026-05-04 03:23 1.02321 -82.81554 38030 ft 472 kts 345°
2026-05-04 03:23 1.08637 -82.83498 38033 ft 476 kts 346°
2026-05-04 03:24 1.14952 -82.85442 38030 ft 478 kts 346°
2026-05-04 03:24 1.21286 -82.87392 38034 ft 476 kts 346°
2026-05-04 03:25 1.27574 -82.89328 38038 ft 476 kts 346°
2026-05-04 03:25 1.33899 -82.91275 38041 ft 476 kts 346°
2026-05-04 03:26 1.40185 -82.93210 38042 ft 476 kts 346°
2026-05-04 03:26 1.46651 -82.94522 38044 ft 473 kts 353°
2026-05-04 03:27 1.53071 -82.95601 38045 ft 473 kts 353°
2026-05-04 03:27 1.59533 -82.96689 38046 ft 473 kts 353°
2026-05-04 03:28 1.66008 -82.97781 38047 ft 473 kts 353°
2026-05-04 03:28 1.72534 -82.98883 38048 ft 473 kts 353°
2026-05-04 03:29 1.78999 -82.99975 38048 ft 473 kts 353°
2026-05-04 03:29 1.85458 -83.01066 38053 ft 473 kts 353°
2026-05-04 03:30 1.91936 -83.02161 38053 ft 473 kts 353°
2026-05-04 03:30 1.98381 -83.03250 38053 ft 473 kts 353°
2026-05-04 03:31 2.04874 -83.04347 38054 ft 474 kts 353°
2026-05-04 03:31 2.11427 -83.05455 38053 ft 474 kts 353°
2026-05-04 03:32 2.17921 -83.06553 38053 ft 474 kts 353°
2026-05-04 03:32 2.24368 -83.07643 38053 ft 474 kts 353°
2026-05-04 03:33 2.30885 -83.08745 38053 ft 474 kts 353°
2026-05-04 03:33 2.37389 -83.09845 38053 ft 474 kts 353°
2026-05-04 03:34 2.43875 -83.10942 38054 ft 475 kts 353°
2026-05-04 03:34 2.50389 -83.12044 38054 ft 474 kts 353°
2026-05-04 03:35 2.56862 -83.13139 38054 ft 474 kts 353°
2026-05-04 03:35 2.63365 -83.14239 38054 ft 475 kts 353°
2026-05-04 03:36 2.69848 -83.15336 38054 ft 475 kts 353°
2026-05-04 03:36 2.76339 -83.16434 38054 ft 475 kts 353°
2026-05-04 03:37 2.82818 -83.17531 38055 ft 475 kts 353°
2026-05-04 03:37 2.89337 -83.18634 38055 ft 475 kts 353°
2026-05-04 03:38 2.95791 -83.19727 38062 ft 475 kts 353°
2026-05-04 03:38 3.02338 -83.20834 38071 ft 476 kts 353°
2026-05-04 03:39 3.08846 -83.21937 38076 ft 476 kts 353°
2026-05-04 03:39 3.15308 -83.23031 38075 ft 476 kts 353°
2026-05-04 03:40 3.21829 -83.24135 38075 ft 476 kts 353°
2026-05-04 03:40 3.28346 -83.25239 38075 ft 476 kts 353°
2026-05-04 03:41 3.34857 -83.26342 38075 ft 476 kts 353°
2026-05-04 03:41 3.41338 -83.27440 38076 ft 477 kts 353°
2026-05-04 03:42 3.47875 -83.28548 38075 ft 476 kts 353°
2026-05-04 03:42 3.54381 -83.29650 38075 ft 476 kts 353°
2026-05-04 03:43 3.60906 -83.30756 38076 ft 477 kts 353°
2026-05-04 03:43 3.67399 -83.31857 38076 ft 476 kts 353°
2026-05-04 03:44 3.73917 -83.32962 38076 ft 477 kts 353°
2026-05-04 03:44 3.80441 -83.34068 38076 ft 477 kts 353°
2026-05-04 03:45 3.86960 -83.35174 38076 ft 477 kts 353°
2026-05-04 03:45 3.93484 -83.36280 38077 ft 477 kts 353°
2026-05-04 03:46 3.99999 -83.37386 38077 ft 477 kts 353°
2026-05-04 03:46 4.06553 -83.38497 38077 ft 477 kts 353°
2026-05-04 03:47 4.13043 -83.39599 38075 ft 477 kts 353°
2026-05-04 03:47 4.19597 -83.40711 38075 ft 477 kts 353°
2026-05-04 03:48 4.26092 -83.41814 38076 ft 477 kts 353°
2026-05-04 03:48 4.32615 -83.42921 38076 ft 477 kts 353°
2026-05-04 03:49 4.39144 -83.44030 38076 ft 477 kts 352°
2026-05-04 03:49 4.45647 -83.45135 38076 ft 477 kts 353°
2026-05-04 03:50 4.52174 -83.46243 38076 ft 477 kts 353°
2026-05-04 03:50 4.58719 -83.47356 38077 ft 477 kts 352°
2026-05-04 03:51 4.65220 -83.48460 38077 ft 476 kts 352°
2026-05-04 03:51 4.71723 -83.49566 38077 ft 477 kts 352°
2026-05-04 03:52 4.78231 -83.50672 38077 ft 476 kts 352°
2026-05-04 03:52 4.84738 -83.51778 38077 ft 476 kts 352°
2026-05-04 03:53 4.91237 -83.52884 38077 ft 476 kts 352°
2026-05-04 03:53 4.97774 -83.53996 38077 ft 476 kts 352°
2026-05-04 03:54 5.04259 -83.55100 38077 ft 476 kts 352°
2026-05-04 03:54 5.11216 -83.56283 38076 ft 475 kts 352°
2026-05-04 03:55 5.17901 -83.57421 38076 ft 475 kts 352°
2026-05-04 03:55 5.24666 -83.58572 38076 ft 475 kts 352°
2026-05-04 03:56 5.31771 -83.59782 38074 ft 475 kts 352°
2026-05-04 03:56 5.38242 -83.60885 38066 ft 475 kts 352°
2026-05-04 03:57 5.44738 -83.61991 38057 ft 475 kts 352°
2026-05-04 03:57 5.51241 -83.63100 38056 ft 475 kts 352°
2026-05-04 03:58 5.60956 -83.64755 38056 ft 475 kts 352°
2026-05-04 03:58 5.67441 -83.65861 38052 ft 474 kts 352°
2026-05-04 03:59 5.73962 -83.66973 38052 ft 474 kts 352°
2026-05-04 03:59 5.80494 -83.68087 38052 ft 474 kts 352°
2026-05-04 04:00 5.87011 -83.69199 38052 ft 474 kts 352°
2026-05-04 04:00 5.93561 -83.70317 38052 ft 475 kts 352°
2026-05-04 04:01 6.00034 -83.71422 38053 ft 474 kts 352°
2026-05-04 04:01 6.06545 -83.72533 38053 ft 474 kts 351°
2026-05-04 04:02 6.13160 -83.73663 38052 ft 474 kts 351°
2026-05-04 04:02 6.20023 -83.74835 38052 ft 474 kts 351°
2026-05-04 04:03 6.26574 -83.75955 38052 ft 474 kts 351°
2026-05-04 04:03 6.33079 -83.77067 38052 ft 474 kts 351°
2026-05-04 04:04 6.39695 -83.78198 38052 ft 474 kts 351°
2026-05-04 04:04 6.46209 -83.79311 38052 ft 473 kts 351°
2026-05-04 04:05 6.52690 -83.80420 38052 ft 473 kts 351°
2026-05-04 04:05 6.59314 -83.81554 38052 ft 473 kts 351°
2026-05-04 04:06 6.65922 -83.82684 38052 ft 472 kts 352°
2026-05-04 04:06 6.72545 -83.83818 38052 ft 473 kts 352°
2026-05-04 04:07 6.79005 -83.84924 38052 ft 472 kts 352°
2026-05-04 04:07 6.85461 -83.86030 38053 ft 472 kts 352°
2026-05-04 04:08 6.92127 -83.87172 38052 ft 472 kts 352°
2026-05-04 04:08 6.98654 -83.88290 38052 ft 471 kts 352°
2026-05-04 04:09 7.05163 -83.89406 38053 ft 471 kts 352°
2026-05-04 04:09 7.11701 -83.90527 38052 ft 471 kts 352°
2026-05-04 04:10 7.18200 -83.91642 38053 ft 470 kts 352°
2026-05-04 04:10 7.24973 -83.92804 38053 ft 470 kts 352°
2026-05-04 04:11 7.31785 -83.93973 38052 ft 470 kts 352°
2026-05-04 04:11 7.38249 -83.95083 38053 ft 469 kts 352°
2026-05-04 04:12 7.44746 -83.96198 38053 ft 469 kts 352°
2026-05-04 04:12 7.51353 -83.97334 38053 ft 469 kts 352°
2026-05-04 04:13 7.58035 -83.98482 38053 ft 469 kts 352°
2026-05-04 04:13 7.64539 -83.99599 38053 ft 469 kts 352°
2026-05-04 04:14 7.70949 -84.00702 38053 ft 469 kts 352°
2026-05-04 04:14 7.77386 -84.01809 38054 ft 469 kts 352°
2026-05-04 04:15 7.83804 -84.02913 38060 ft 469 kts 352°
2026-05-04 04:15 7.90229 -84.04018 38065 ft 468 kts 352°
2026-05-04 04:16 7.96639 -84.05122 38069 ft 468 kts 352°
2026-05-04 04:16 8.03017 -84.06220 38073 ft 468 kts 352°
2026-05-04 04:17 8.09398 -84.07320 38076 ft 468 kts 352°
2026-05-04 04:17 8.15828 -84.08427 38081 ft 469 kts 352°
2026-05-04 04:18 8.22221 -84.09529 38084 ft 469 kts 352°
2026-05-04 04:18 8.28618 -84.10632 38088 ft 469 kts 352°
2026-05-04 04:19 8.35042 -84.11741 37938 ft 465 kts 352°
2026-05-04 04:19 8.38232 -84.12291 37144 ft 471 kts 352°
2026-05-04 04:19 8.41452 -84.12846 36318 ft 477 kts 352°
2026-05-04 04:20 8.44726 -84.13410 35529 ft 482 kts 352°
2026-05-04 04:20 8.48029 -84.13980 34725 ft 486 kts 351°
2026-05-04 04:20 8.51378 -84.14558 33888 ft 490 kts 351°
2026-05-04 04:20 8.54699 -84.15132 33062 ft 493 kts 351°
2026-05-04 04:21 8.58064 -84.15713 32186 ft 497 kts 351°
2026-05-04 04:21 8.61474 -84.16303 31296 ft 500 kts 351°
2026-05-04 04:21 8.64902 -84.16894 30560 ft 499 kts 351°
2026-05-04 04:21 8.68275 -84.17478 30063 ft 492 kts 351°
2026-05-04 04:22 8.71617 -84.18056 29530 ft 487 kts 351°
2026-05-04 04:22 8.74928 -84.18629 28965 ft 483 kts 351°
2026-05-04 04:22 8.78198 -84.19194 28393 ft 479 kts 351°
2026-05-04 04:22 8.81580 -84.19778 27799 ft 476 kts 351°
2026-05-04 04:23 8.84854 -84.20334 27225 ft 472 kts 351°
2026-05-04 04:23 8.88049 -84.20875 26669 ft 469 kts 351°
2026-05-04 04:23 8.91263 -84.21421 26118 ft 466 kts 351°
2026-05-04 04:23 8.94538 -84.21977 25558 ft 462 kts 351°
2026-05-04 04:24 8.97800 -84.22531 25000 ft 459 kts 351°
2026-05-04 04:24 9.01050 -84.23083 24447 ft 456 kts 351°
2026-05-04 04:24 9.04177 -84.23615 23919 ft 453 kts 351°
2026-05-04 04:24 9.07403 -84.24163 23359 ft 450 kts 351°
2026-05-04 04:25 9.10458 -84.24683 22829 ft 447 kts 351°
2026-05-04 04:25 9.13548 -84.25208 22284 ft 444 kts 351°
2026-05-04 04:25 9.16666 -84.25739 21727 ft 441 kts 351°
2026-05-04 04:25 9.19727 -84.26260 21178 ft 438 kts 351°
2026-05-04 04:26 9.22803 -84.26784 20618 ft 435 kts 351°
2026-05-04 04:26 9.25839 -84.27300 20060 ft 432 kts 351°
2026-05-04 04:26 9.28769 -84.27799 19523 ft 429 kts 351°
2026-05-04 04:26 9.31878 -84.28329 18943 ft 426 kts 351°
2026-05-04 04:27 9.34807 -84.28828 18394 ft 423 kts 351°
2026-05-04 04:27 9.37997 -84.29371 17793 ft 420 kts 351°
2026-05-04 04:27 9.41145 -84.29907 17195 ft 416 kts 351°
2026-05-04 04:27 9.44224 -84.30432 16610 ft 413 kts 351°
2026-05-04 04:28 9.47294 -84.30956 16022 ft 409 kts 351°
2026-05-04 04:28 9.50287 -84.31468 15448 ft 406 kts 350°
2026-05-04 04:28 9.53272 -84.32329 14834 ft 404 kts 339°
2026-05-04 04:28 9.56121 -84.33617 14269 ft 399 kts 336°
2026-05-04 04:29 9.58847 -84.34902 13767 ft 394 kts 336°
2026-05-04 04:29 9.61411 -84.36113 13302 ft 389 kts 336°
2026-05-04 04:29 9.63945 -84.37311 12839 ft 384 kts 336°
2026-05-04 04:29 9.66585 -84.38559 12351 ft 379 kts 336°
2026-05-04 04:30 9.69007 -84.39705 11897 ft 374 kts 336°
2026-05-04 04:30 9.71366 -84.40822 11453 ft 356 kts 336°
2026-05-04 04:30 9.73617 -84.41888 11044 ft 340 kts 336°
2026-05-04 04:30 9.75749 -84.42897 10653 ft 327 kts 336°
2026-05-04 04:31 9.77788 -84.43862 10274 ft 316 kts 336°
2026-05-04 04:31 9.79792 -84.44693 10021 ft 301 kts 345°
2026-05-04 04:31 9.81773 -84.45259 9992 ft 281 kts 347°
2026-05-04 04:31 9.83591 -84.45742 9990 ft 263 kts 347°
2026-05-04 04:32 9.85360 -84.46212 9991 ft 249 kts 347°
2026-05-04 04:32 9.87123 -84.46610 9985 ft 247 kts
2026-05-04 04:32 9.88769 -84.46281 10017 ft 235 kts 27°
2026-05-04 04:32 9.90018 -84.45242 9981 ft 223 kts 53°
2026-05-04 04:33 9.90725 -84.43899 9987 ft 208 kts 66°
2026-05-04 04:33 9.91295 -84.42493 9993 ft 205 kts 69°
2026-05-04 04:33 9.91813 -84.41121 10015 ft 198 kts 69°
2026-05-04 04:33 9.92315 -84.39768 9997 ft 201 kts 70°
2026-05-04 04:34 9.92812 -84.38426 9742 ft 196 kts 70°
2026-05-04 04:34 9.93292 -84.37142 8879 ft 199 kts 63°
2026-05-04 04:34 9.94256 -84.36053 8138 ft 190 kts 37°
2026-05-04 04:34 9.95469 -84.35697 7496 ft 190 kts
2026-05-04 04:35 9.96676 -84.36055 7199 ft 176 kts 326°
2026-05-04 04:35 9.97327 -84.37086 6653 ft 180 kts 284°
2026-05-04 04:35 9.97199 -84.38376 6014 ft 185 kts 245°
2026-05-04 04:35 9.96247 -84.39316 5627 ft 169 kts 201°
2026-05-04 04:36 9.95078 -84.39341 5314 ft 161 kts 159°
2026-05-04 04:36 9.94283 -84.38656 5041 ft 146 kts 114°
2026-05-04 04:36 9.94044 -84.37668 5092 ft 146 kts 101°
2026-05-04 04:36 9.93823 -84.36632 5244 ft 151 kts 99°
2026-05-04 04:37 9.94619 -84.33787 6121 ft 152 kts 55°
2026-05-04 04:37 9.95106 -84.32821 6199 ft 157 kts 69°
2026-05-04 04:38 9.95425 -84.31747 5859 ft 154 kts 76°
2026-05-04 04:38 9.95806 -84.30585 5135 ft 159 kts 65°
2026-05-04 04:38 9.96224 -84.29555 4699 ft 152 kts 74°
2026-05-04 04:38 9.96550 -84.28541 4312 ft 142 kts 65°
2026-05-04 04:39 9.96890 -84.27634 4243 ft 140 kts 70°
2026-05-04 04:39 9.97250 -84.26701 4009 ft 139 kts 67°
2026-05-04 04:39 9.97571 -84.25772 3755 ft 138 kts 69°
2026-05-04 04:39 9.97908 -84.24891 3559 ft 134 kts 67°
2026-05-04 04:40 9.98228 -84.23997 3301 ft 137 kts 70°
2026-05-04 04:40 9.98574 -84.23114 3163 ft 126 kts 66°
2026-05-04 04:40 9.98868 -84.22315 3055 ft 118 kts 69°
2026-05-04 04:40 9.99150 -84.21575 3018 ft 106 kts 66°
2026-05-04 04:41 9.99339 -84.21030 3018 ft 56 kts 69°
2026-05-04 04:41 9.99414 -84.20830 3018 ft 12 kts 69°
2026-05-04 04:41 9.99456 -84.20722 3018 ft 19 kts 69°
2026-05-04 04:41 9.99507 -84.20576 3018 ft 24 kts 70°
2026-05-04 04:42 9.99573 -84.20399 3018 ft 29 kts 69°
2026-05-04 04:42 9.99637 -84.20232 3018 ft 3 kts 68°
2026-05-04 04:42 9.99659 -84.20180 3018 ft 10 kts 57°
2026-05-04 04:42 9.99701 -84.20147 3018 ft 9 kts
2026-05-04 04:43 9.99705 -84.20147 3018 ft 0 kts
2026-05-04 04:44 9.99731 -84.20148 3018 ft 8 kts
2026-05-04 04:44 9.99756 -84.20131 3018 ft 4 kts 49°
2026-05-04 04:44 9.99779 -84.20114 3018 ft 3 kts
2026-05-04 04:44 9.99805 -84.20114 3018 ft 3 kts
2026-05-04 04:45 9.99818 -84.20113 3018 ft 0 kts 12°
2026-05-04 04:45 9.99819 -84.20113 3018 ft 0 kts 18°
2026-05-04 04:45 9.99820 -84.20112 3018 ft 0 kts 25°
2026-05-04 04:47 9.99830 -84.20100 3018 ft 1 kts 44°
2026-05-04 04:47 9.99833 -84.20097 3018 ft 0 kts 26°
2026-05-04 04:47 9.99834 -84.20097 3018 ft 0 kts 17°
2026-05-04 04:47 9.99842 -84.20096 3018 ft 1 kts 10°
2026-05-04 04:48 9.99855 -84.20095 3018 ft 1 kts 354°
2026-05-04 04:49 9.99860 -84.20097 3018 ft 0 kts 342°